Location: Unspecified
(41.5000°N, 0.0000°E)
Time: 14:33:14
(UTC+00:00)

deb Explorer IX - Pass Details

Date: 20 June 2019
Orbit: 539 x 1111 km, 38.8° (Epoch: 18 August)

Event Time Altitude Azimuth Distance (km) Brightness Sun altitude
Rises 15:45:12 0° 255° (WSW) 3,907 ? 40.4°
Reaches altitude 10° 15:47:58 10° 253° (WSW) 2,968 ? 39.9°
Maximum altitude 15:55:19 69° 172° (S) 1,168 ? 38.6°
Drops below altitude 10° 16:02:18 10° 91° (E) 2,838 ? 37.2°
Sets 16:04:54 0° 89° (E) 3,727 ? 36.8°
